Location: Unspecified
(0.0000°N, 0.0000°E)
Time: 14:03:31
(UTC+00:00)

LightSail 2 - Pass Details

Date: 11 September 2019
Orbit: 699 x 732 km, 24.0° (Epoch: 17 September)

Event Time Altitude Azimuth Distance (km) Brightness Sun altitude
Exits shadow 05:20:57 - 241° (WSW) 2,287 7.2 -8.9°
Reaches altitude 10° 05:21:18 10° 240° (WSW) 2,158 7.1 -8.9°
Maximum altitude 05:26:24 78° 154° (SSE) 721 5.3 -7.6°
Drops below altitude 10° 05:31:32 10° 68° (ENE) 2,174 9.1 -6.3°
Sets 05:33:58 0° 67° (ENE) 3,097 10.1 -5.7°
